When you browse on this site, cookies collect data to enhance your experience and personalize the content and advertising you see.
Visit our Privacy Policy to learn more. By continuing to use the site, you agree to this use of cookies and data.
  • In Latvia
  • List of Countries
  • For 7 days
  • Water Temperature
  • Weather Map
  • Weather Widgets
  • user-avatar
    Login

    Hourly Weather Zurawia

    Today, 22 February, Saturday

    Time Temperature Precipitation Wind Pressure Humidity
    00:00 -1°C° 0 mm 4 mps 752 mmHg 88%
    01:00 0°C° 0 mm 3 mps 752 mmHg 90%
    02:00 -1°C° 0 mm 4 mps 752 mmHg 90%
    03:00 -1°C° 0 mm 4 mps 752 mmHg 90%
    04:00 -1°C° 0 mm 4 mps 751 mmHg 90%
    05:00 -1°C° 0 mm 4 mps 751 mmHg 88%
    06:00 -1°C° 0 mm 5 mps 751 mmHg 86%
    07:00 -1°C° 0 mm 5 mps 751 mmHg 83%
    08:00 -1°C° 0 mm 6 mps 751 mmHg 76%
    09:00 +2°C° 0 mm 7 mps 750 mmHg 68%
    10:00 +2°C° 0 mm 8 mps 749 mmHg 61%
    11:00 +4°C° 0 mm 8 mps 749 mmHg 60%
    12:00 +3°C° 0 mm 9 mps 748 mmHg 59%
    13:00 +5°C° 0 mm 9 mps 747 mmHg 59%
    14:00 +5°C° 0 mm 9 mps 746 mmHg 57%
    15:00 +5°C° 0 mm 9 mps 745 mmHg 56%
    16:00 +5°C° 0 mm 9 mps 744 mmHg 54%
    17:00 +6°C° 0 mm 9 mps 744 mmHg 54%
    18:00 +6°C° 0 mm 9 mps 744 mmHg 53%
    19:00 +6°C° 0 mm 9 mps 743 mmHg 53%
    20:00 +6°C° 0 mm 9 mps 743 mmHg 53%
    21:00 +6°C° 0 mm 9 mps 742 mmHg 53%
    22:00 +6°C° 0 mm 9 mps 742 mmHg 54%
    23:00 +6°C° 0.1 mm 10 mps 742 mmHg 60%

    Tomorrow, 23 February, Sunday

    Time Temperature Precipitation Wind Pressure Humidity
    00:00 +6°C° 0.1 mm 10 mps 742 mmHg 67%
    01:00 +6°C° 0.1 mm 10 mps 742 mmHg 74%
    02:00 +5°C° 0.7 mm 10 mps 742 mmHg 71%
    03:00 +3°C° 0.7 mm 9 mps 742 mmHg 67%
    04:00 +2°C° 0.7 mm 9 mps 742 mmHg 64%
    05:00 +2°C° 0 mm 8 mps 742 mmHg 66%
    06:00 +1°C° 0 mm 8 mps 743 mmHg 68%
    07:00 +1°C° 0 mm 8 mps 743 mmHg 70%
    08:00 +1°C° 0.2 mm 8 mps 743 mmHg 68%
    09:00 +2°C° 0.2 mm 8 mps 743 mmHg 66%
    10:00 +2°C° 0.2 mm 9 mps 743 mmHg 65%
    11:00 +3°C° 0 mm 9 mps 742 mmHg 62%
    12:00 +3°C° 0 mm 9 mps 742 mmHg 60%
    13:00 +3°C° 0 mm 9 mps 742 mmHg 58%
    14:00 +2°C° 0.2 mm 8 mps 741 mmHg 68%
    15:00 +3°C° 0.2 mm 7 mps 740 mmHg 78%
    16:00 +2°C° 0.2 mm 5 mps 738 mmHg 89%
    17:00 +3°C° 1.1 mm 4 mps 737 mmHg 91%
    18:00 +3°C° 1.1 mm 3 mps 735 mmHg 93%
    19:00 +4°C° 1.1 mm 2 mps 733 mmHg 95%
    20:00 +2°C° 2.8 mm 3 mps 732 mmHg 96%
    21:00 +2°C° 2.8 mm 3 mps 730 mmHg 96%
    22:00 +1°C° 2.8 mm 4 mps 729 mmHg 96%
    23:00 -1°C° 1.2 mm 6 mps 731 mmHg 96%

    Day after tomorrow, 24 February, Monday

    Time Temperature Precipitation Wind Pressure Humidity
    00:00 -1°C° 1.2 mm 7 mps 733 mmHg 95%
    01:00 -3°C° 1.2 mm 9 mps 736 mmHg 95%
    02:00 -3°C° 0.4 mm 9 mps 737 mmHg 95%
    03:00 -3°C° 0.4 mm 9 mps 738 mmHg 94%
    04:00 -3°C° 0.4 mm 9 mps 740 mmHg 94%
    05:00 -3°C° 0.1 mm 9 mps 741 mmHg 91%
    06:00 -1°C° 0.1 mm 9 mps 742 mmHg 87%
    07:00 -1°C° 0.1 mm 9 mps 743 mmHg 84%
    08:00 -1°C° 0 mm 9 mps 744 mmHg 82%
    09:00 0°C° 0 mm 8 mps 745 mmHg 79%
    10:00 0°C° 0 mm 8 mps 745 mmHg 76%
    11:00 +1°C° 0.1 mm 8 mps 746 mmHg 75%
    12:00 +1°C° 0.1 mm 8 mps 746 mmHg 74%
    13:00 +2°C° 0.1 mm 8 mps 746 mmHg 72%
    14:00 +3°C° 0 mm 7 mps 746 mmHg 72%
    15:00 +2°C° 0 mm 6 mps 746 mmHg 73%
    16:00 +2°C° 0 mm 6 mps 746 mmHg 73%
    17:00 +2°C° 0 mm 5 mps 746 mmHg 73%
    18:00 +2°C° 0 mm 5 mps 746 mmHg 73%
    19:00 +1°C° 0 mm 4 mps 746 mmHg 73%
    20:00 +1°C° 0 mm 4 mps 745 mmHg 75%
    21:00 +1°C° 0 mm 4 mps 744 mmHg 76%
    22:00 0°C° 0 mm 4 mps 744 mmHg 78%
    23:00 0°C° 0 mm 5 mps 743 mmHg 76%

    25 February, Tuesday

    Time Temperature Precipitation Wind Pressure Humidity
    00:00 -1°C° 0 mm 6 mps 742 mmHg 75%
    01:00 0°C° 0 mm 7 mps 741 mmHg 73%
    02:00 0°C° 0.4 mm 7 mps 740 mmHg 74%
    03:00 +1°C° 0.4 mm 8 mps 739 mmHg 74%
    04:00 +2°C° 0.4 mm 8 mps 737 mmHg 75%
    05:00 +2°C° 0.1 mm 8 mps 737 mmHg 78%
    06:00 +4°C° 0.1 mm 8 mps 736 mmHg 81%
    07:00 +4°C° 0.1 mm 8 mps 736 mmHg 85%
    08:00 +5°C° 0 mm 8 mps 736 mmHg 82%
    09:00 +6°C° 0 mm 8 mps 735 mmHg 79%
    10:00 +7°C° 0 mm 8 mps 735 mmHg 76%
    11:00 +7°C° 0.2 mm 8 mps 735 mmHg 76%
    12:00 +7°C° 0.2 mm 8 mps 734 mmHg 75%
    13:00 +9°C° 0.2 mm 7 mps 734 mmHg 75%
    14:00 +8°C° 0.2 mm 7 mps 734 mmHg 75%
    15:00 +8°C° 0.2 mm 6 mps 733 mmHg 76%
    16:00 +8°C° 0.2 mm 6 mps 733 mmHg 77%
    17:00 +7°C° 1.2 mm 6 mps 733 mmHg 78%
    18:00 +5°C° 1.2 mm 7 mps 733 mmHg 78%
    19:00 +4°C° 1.2 mm 8 mps 733 mmHg 79%
    20:00 +4°C° 0 mm 7 mps 733 mmHg 77%
    21:00 +3°C° 0 mm 6 mps 733 mmHg 75%
    22:00 +3°C° 0 mm 4 mps 733 mmHg 73%
    23:00 +3°C° 0 mm 4 mps 733 mmHg 73%

    26 February, Wednesday

    Time Temperature Precipitation Wind Pressure Humidity
    00:00 +3°C° 0 mm 4 mps 733 mmHg 73%
    01:00 +1°C° 0 mm 4 mps 732 mmHg 73%
    02:00 +1°C° 0 mm 4 mps 732 mmHg 75%
    03:00 +1°C° 0 mm 4 mps 732 mmHg 76%
    04:00 0°C° 0 mm 4 mps 731 mmHg 78%
    05:00 0°C° 0 mm 4 mps 731 mmHg 81%
    06:00 0°C° 0 mm 4 mps 731 mmHg 83%
    07:00 0°C° 0 mm 4 mps 731 mmHg 86%
    08:00 +1°C° 0 mm 4 mps 730 mmHg 82%
    09:00 +2°C° 0 mm 5 mps 730 mmHg 77%
    10:00 +3°C° 0 mm 5 mps 730 mmHg 73%
    11:00 +4°C° 0 mm 6 mps 729 mmHg 69%
    12:00 +4°C° 0 mm 6 mps 729 mmHg 65%
    13:00 +5°C° 0 mm 6 mps 729 mmHg 61%
    14:00 +4°C° 0.2 mm 6 mps 729 mmHg 67%
    15:00 +3°C° 0.2 mm 7 mps 729 mmHg 73%
    16:00 +2°C° 0.2 mm 7 mps 728 mmHg 79%
    17:00 +1°C° 0 mm 6 mps 729 mmHg 76%
    18:00 +1°C° 0 mm 6 mps 729 mmHg 73%
    19:00 +1°C° 0 mm 5 mps 730 mmHg 70%
    20:00 0°C° 0 mm 5 mps 730 mmHg 74%
    21:00 -1°C° 0 mm 6 mps 731 mmHg 78%
    22:00 -2°C° 0 mm 6 mps 731 mmHg 83%
    23:00 -2°C° 0.1 mm 6 mps 731 mmHg 83%

    27 February, Thursday

    Time Temperature Precipitation Wind Pressure Humidity
    00:00 -1°C° 0.1 mm 6 mps 731 mmHg 84%
    01:00 -1°C° 0.1 mm 6 mps 732 mmHg 85%
    02:00 -2°C° 0 mm 6 mps 732 mmHg 85%
    03:00 -2°C° 0 mm 6 mps 732 mmHg 84%
    04:00 -2°C° 0 mm 6 mps 732 mmHg 84%
    05:00 -2°C° 0 mm 7 mps 732 mmHg 84%
    06:00 -2°C° 0 mm 7 mps 733 mmHg 85%
    07:00 -2°C° 0 mm 7 mps 733 mmHg 85%
    08:00 -2°C° 0.1 mm 7 mps 733 mmHg 82%
    09:00 -1°C° 0.1 mm 7 mps 734 mmHg 80%
    10:00 -1°C° 0.1 mm 8 mps 734 mmHg 77%
    11:00 -1°C° 0 mm 8 mps 735 mmHg 72%
    12:00 0°C° 0 mm 8 mps 735 mmHg 68%
    13:00 0°C° 0 mm 9 mps 735 mmHg 63%
    14:00 0°C° 0 mm 9 mps 736 mmHg 64%
    15:00 0°C° 0 mm 8 mps 737 mmHg 66%
    16:00 0°C° 0 mm 8 mps 737 mmHg 67%
    17:00 -1°C° 0 mm 7 mps 738 mmHg 72%
    18:00 -2°C° 0 mm 7 mps 738 mmHg 76%
    19:00 -2°C° 0 mm 6 mps 739 mmHg 81%
    20:00 -2°C° 0 mm 5 mps 740 mmHg 83%
    21:00 -2°C° 0 mm 4 mps 740 mmHg 85%
    22:00 -2°C° 0 mm 3 mps 741 mmHg 86%
    23:00 -2°C° 0 mm 3 mps 741 mmHg 87%
    Show more